Tracking 28309 objects as of 1-Dec-2023
HD Live streaming from Space Station
objects crossing your sky now

FEES

Track FEES now!
10-day predictions
FEES is classified as:


NORAD ID: 48082
Int'l Code: 2021-022AL
Perigee: 411.9 km
Apogee: 427.8 km
Inclination: 97.5 °
Period: 92.8 minutes
Semi major axis: 6790 km
RCS: Unknown
Launch date: March 22, 2021
Source: Italy (IT)
Launch site: TYURATAM MISSILE AND SPACE COMPLEX (TTMTR)

Uplink (MHz):
Downlink (MHz): 437.200
Beacon (MHz):
Mode: 9600bps FSK/LoRa
Call sign:
Status: Inactive

Your satellite tracking list
Your tracking list is empty




NASA's NSSDC Master Catalog

Two Line Element Set (TLE):
1 48082U 21022AL  23334.31297977  .00168219  00000-0  27972-2 0  9995
2 48082  97.4769 239.2660 0011736  75.4484 284.8069 15.51384265147362
Source of the keplerian elements: AMSAT